Latest Coastal Weather Observations for Christmas Island

IDW60701

Issued at 2:53 pm WST Wednesday 26 July 2017 (issued every 10 minutes, with the page automatically refreshed every 10 minutes)

About coastal observations | Map of coastal stations | Coastal observations for WA | Marine services | Other Formats
Station Details ID: 200790 Name: CHRISTMAS ISLAND AERO Lat: -10.45 Lon: 105.69 Height: 261.0 m
Data from the previous 72 hours. | See also: Recent months at Christmas Island
Date/Time
WST
Temp
°C
Wind Pressure Rain since
9am
mm
Weather Cloud Vis
km
Sea
Height
m
Swell
Dir  Spd
kts
Gust
kts
hPa Trend Height
m
Period
s
Dir
26/02:30pm 24.3 SE 14 19 1013.5 - 0.0 - Partly cloudy 10 - - - -
26/02:07pm 24.7 ESE 12 19 1013.8 - 0.0 - Partly cloudy 10 - - - -
26/02:01pm 24.6 ESE 13 19 1013.8 - 0.0 - Partly cloudy 10 - - - -
26/02:00pm 24.5 ESE 14 19 1013.9 - 0.0 - Partly cloudy 10 - - - -
26/01:30pm 24.1 ESE 12 18 1014.2 - 0.0 - Partly cloudy 10 - - - -
26/01:00pm 24.5 ESE 14 20 1013.1 - 0.0 - Cloudy 10 - - - -
26/12:30pm 24.5 SE 14 19 1014.8 - 0.0 - Cloudy 10 - - - -
26/12:00pm 24.5 SE 14 20 1015.2 - 0.0 - Cloudy 10 - - - -
26/11:30am 24.9 SE 14 19 1015.4 - 0.0 - Partly cloudy 10 - - - -
26/11:00am 24.2 SE 13 20 1015.5 - 0.0 - Partly cloudy 10 - - - -
26/10:31am 24.2 SE 13 18 1015.7 - 0.0 - Partly cloudy 10 - - - -
26/10:30am 24.2 SE 13 18 1015.7 - 0.0 - Partly cloudy 10 - - - -
26/10:00am 24.1 ESE 13 17 1014.4 - 0.0 - Cloudy 10 - - - -
26/09:48am 23.9 ESE 13 19 1015.8 - 0.0 - Partly cloudy 10 - - - -
26/09:37am 23.8 SE 12 19 1015.8 - 0.0 - Partly cloudy 10 - - - -
26/09:30am 23.8 SE 13 19 1015.7 - 0.0 - Partly cloudy 10 - - - -
26/09:00am 23.7 ESE 12 17 1015.4 - 0.0 - Partly cloudy 10 - - - -
26/08:30am 23.3 SE 11 18 1014.9 - 0.0 - Partly cloudy 10 - - - -
26/08:26am 23.3 SE 11 18 1014.9 - 0.0 - Partly cloudy 10 - - - -
26/08:25am 23.4 SE 11 18 1014.9 - 0.0 - Partly cloudy 10 - - - -
26/08:00am 23.2 SE 12 17 1014.5 - 0.0 - Partly cloudy 10 - - - -
26/07:35am 23.1 SE 13 20 1014.3 - 0.0 - Partly cloudy 10 - - - -
26/07:30am 23.1 SE 13 20 1014.1 - 0.0 - Partly cloudy 10 - - - -
26/07:00am 23.0 SE 12 19 1012.5 - 0.0 - Cloudy 10 - - - -
26/06:53am 22.9 SE 12 19 1013.8 - 0.0 - Partly cloudy 10 - - - -
26/06:33am 22.9 SE 12 17 1013.8 - 0.0 - Partly cloudy 10 - - - -
26/06:30am 22.9 SE 11 17 1013.7 - 0.0 - Partly cloudy 10 - - - -
26/06:00am 22.7 SE 13 19 1013.8 - 0.0 - Partly cloudy 10 - - - -
26/05:40am 22.6 SE 11 17 1013.7 - 0.0 - Partly cloudy 10 - - - -
26/05:30am 22.6 SE 13 19 1013.7 - 0.0 - Partly cloudy 10 - - - -
26/05:00am 22.7 SE 13 17 1013.6 - 0.0 - Partly cloudy 10 - - - -
26/04:30am 22.7 SE 13 17 1013.5 - 0.0 - Partly cloudy 10 - - - -
26/04:14am 22.8 ESE 13 20 1013.5 - 0.0 - Partly cloudy 10 - - - -
26/04:00am 22.8 ESE 13 18 1012.1 - 0.0 - Mostly clear 10 - - - -
26/03:30am 22.7 ESE 13 20 1013.7 - 0.0 - Partly cloudy 10 - - - -
26/03:00am 22.9 ESE 13 20 1013.8 - 0.0 - Partly cloudy 10 - - - -
26/02:58am 23.0 ESE 14 20 1013.8 - 0.0 - Partly cloudy 10 - - - -
26/02:32am 23.1 ESE 12 18 1013.9 - 0.0 - Partly cloudy 10 - - - -
26/02:30am 23.1 ESE 13 18 1013.9 - 0.0 - Partly cloudy 10 - - - -
26/02:00am 23.1 ESE 13 18 1014.1 - 0.0 - Partly cloudy 10 - - - -
26/01:30am 23.1 ESE 15 21 1014.3 - 0.0 - Partly cloudy 10 - - - -
26/01:00am 23.2 ESE 14 19 1013.1 - 0.0 - Cloudy 10 - - - -
26/12:30am 23.2 ESE 15 19 1014.6 - 0.0 - Partly cloudy 10 - - - -
26/12:00am 23.2 ESE 15 21 1014.8 - 0.0 - Partly cloudy 10 - - - -
 
Date/Time
WST
Temp
°C
Wind Pressure Rain since
9am
mm
Weather Cloud Vis
km
Sea
Height
m
Swell
Dir  Spd
kts
Gust
kts
hPa Trend Height
m
Period
s
Dir
25/11:30pm 23.1 SE 16 23 1014.8 - 0.0 - Partly cloudy 10 - - - -
25/11:00pm 23.3 ESE 15 20 1014.7 - 0.0 - Partly cloudy 10 - - - -
25/10:30pm 23.2 ESE 16 23 1014.7 - 0.0 - Partly cloudy 10 - - - -
25/10:00pm 23.1 ESE 14 20 1013.3 - 0.0 - Mostly clear 10 - - - -
25/09:30pm 23.3 ESE 17 23 1014.6 - 0.0 - Partly cloudy 10 - - - -
25/09:00pm 23.2 ESE 15 21 1014.5 - 0.0 - Partly cloudy 10 - - - -
25/08:30pm 23.4 ESE 15 23 1014.4 - 0.0 - Partly cloudy 10 - - - -
25/08:00pm 23.4 ESE 14 20 1014.2 - 0.0 - Partly cloudy 10 - - - -
25/07:30pm 23.3 SE 13 20 1013.9 - 0.0 - Partly cloudy 10 - - - -
25/07:00pm 23.3 ESE 15 21 1012.1 - 0.0 - Mostly cloudy 10 - - - -
25/06:30pm 23.5 SE 14 20 1013.3 - 0.0 - Partly cloudy 10 - - - -
25/06:00pm 23.8 ESE 14 22 1013.0 - 0.0 - Partly cloudy 10 - - - -
25/05:37pm 23.9 SE 15 21 1012.8 - 0.0 - Partly cloudy 10 - - - -
25/05:30pm 23.9 SE 13 21 1012.8 - 0.0 - Partly cloudy 10 - - - -
25/05:26pm 23.9 SE 13 19 1012.8 - 0.0 - Partly cloudy 10 - - - -
25/05:08pm 24.2 ESE 15 21 1012.6 - 0.0 - Cloudy 10 - - - -
25/05:00pm 24.1 SE 15 23 1012.5 - 0.0 - Partly cloudy 10 - - - -
25/04:30pm 24.3 ESE 15 22 1012.4 - 0.0 - Partly cloudy 10 - - - -
25/04:00pm 24.1 ESE 15 23 1010.8 - 0.0 - Cloudy 10 - - - -
25/03:30pm 24.6 ESE 16 21 1012.5 - 0.0 - Partly cloudy 10 - - - -
25/03:00pm 24.4 ESE 17 23 1012.9 - 0.0 - Partly cloudy 10 - - - -
25/02:45pm 24.5 ESE 15 22 1012.9 - 0.0 - Partly cloudy 10 - - - -
25/02:30pm 25.5 ESE 16 24 1013.2 - 0.0 - Partly cloudy 10 - - - -
25/02:00pm 24.6 SE 16 24 1013.6 - 0.0 - Partly cloudy 10 - - - -
25/01:30pm 24.5 SE 16 21 1014.0 - 0.0 - Partly cloudy 10 - - - -
25/01:00pm 24.6 ESE 16 23 1013.0 - 0.0 - Cloudy 10 - - - -
25/12:59pm 24.7 ESE 16 23 1014.5 - 0.0 - Partly cloudy 10 - - - -
25/12:46pm 24.8 ESE 16 22 1014.7 - 0.0 - Partly cloudy 10 - - - -
25/12:30pm 25.1 ESE 15 24 1014.9 - 0.0 - Partly cloudy 10 - - - -
25/12:00pm 24.5 ESE 16 24 1015.2 - 0.0 - Partly cloudy 10 - - - -
25/11:50am 24.3 ESE 17 29 1015.3 - 0.0 - Partly cloudy 10 - - - -
25/11:46am 24.7 ESE 17 22 1015.3 - 0.0 - Partly cloudy 10 - - - -
25/11:30am 24.4 ESE 17 23 1015.6 - 0.0 - Partly cloudy 10 - - - -
25/11:00am 24.7 ESE 16 24 1015.9 - 0.0 - Partly cloudy 10 - - - -
25/10:30am 24.2 ESE 15 21 1016.3 - 0.0 - Partly cloudy 10 - - - -
25/10:28am 24.2 ESE 15 21 1016.3 - 0.0 - Partly cloudy 10 - - - -
25/10:20am 24.1 ESE 15 21 1016.4 - 0.0 - Cloudy 10 - - - -
25/10:00am 24.1 ESE 14 21 1015.0 - 2.8 - Cloudy 10 - - - -
25/09:30am 24.4 ESE 14 21 1016.3 - 2.8 - Partly cloudy 10 - - - -
25/09:00am 23.7 ESE 15 22 1015.8 - 2.8 - Cloudy 10 - - - -
25/08:53am 23.8 ESE 14 23 1015.7 - 2.8 - Partly cloudy 10 - - - -
25/08:30am 23.9 ESE 15 22 1015.5 - 2.8 - Partly cloudy 10 - - - -
25/08:03am 23.6 ESE 15 24 1015.1 - 2.8 - Partly cloudy 10 - - - -
25/08:00am 23.6 ESE 16 24 1015.1 - 2.8 - Partly cloudy 10 - - - -
25/07:50am 23.4 ESE 16 24 1014.9 - 2.8 - Partly cloudy 10 - - - -
25/07:48am 23.4 ESE 15 22 1014.9 - 2.8 - Partly cloudy 10 - - - -
25/07:30am 23.0 ESE 13 20 1014.8 - 2.8 - Partly cloudy 10 - - - -
25/07:00am 23.2 SE 14 22 1013.1 - 2.8 - Mostly cloudy 10 - - - -
25/06:30am 23.1 ESE 15 23 1014.3 - 2.8 - Partly cloudy 10 - - - -
25/06:00am 23.1 SE 16 22 1014.3 - 2.8 - Cloudy 10 - - - -
25/05:30am 23.3 ESE 17 24 1014.1 - 2.8 - Cloudy 10 - - - -
25/05:00am 23.1 ESE 16 24 1014.2 - 2.8 - Partly cloudy 10 - - - -
25/04:30am 23.0 ESE 15 24 1014.3 - 2.8 - Partly cloudy 10 - - - -
25/04:00am 23.1 ESE 16 23 1012.9 - 2.8 - Cloudy 10 - - - -
25/03:30am 22.9 SE 13 19 1014.4 - 2.8 - Partly cloudy 10 - - - -
25/03:00am 23.2 SE 14 23 1014.7 - 2.8 - Partly cloudy 10 - - - -
25/02:30am 23.2 ESE 15 22 1015.0 - 2.8 - Partly cloudy 10 - - - -
25/02:00am 22.9 ESE 15 23 1014.9 - 2.8 - Partly cloudy 10 - - - -
25/01:50am 22.8 SE 14 20 1015.0 - 2.8 - Partly cloudy 7 - - - -
25/01:48am 22.7 SE 14 20 1015.0 - 2.8 - Partly cloudy 8 - - - -
25/01:30am 22.8 ESE 15 25 1015.0 - 2.6 - Partly cloudy 10 - - - -
25/01:00am 22.6 ESE 15 21 1013.7 - 2.6 - Cloudy 9 - - - -
25/12:54am 23.3 ESE 16 23 1015.0 - 2.6 - Partly cloudy 10 - - - -
25/12:50am 23.3 ESE 16 23 1015.1 - 2.6 - Partly cloudy 10 - - - -
25/12:30am 23.2 SE 14 20 1015.2 - 2.6 - Partly cloudy 10 - - - -
25/12:12am 23.1 ESE 15 21 1015.2 - 2.6 - Partly cloudy 10 - - - -
25/12:08am 23.0 ESE 15 21 1015.1 - 2.6 - Partly cloudy 10 - - - -
25/12:00am 23.1 ESE 15 21 1015.1 - 2.6 - Partly cloudy 10 - - - -
 
Date/Time
WST
Temp
°C
Wind Pressure Rain since
9am
mm
Weather Cloud Vis
km
Sea
Height
m
Swell
Dir  Spd
kts
Gust
kts
hPa Trend Height
m
Period
s
Dir
24/11:30pm 22.9 SE 14 21 1015.0 - 2.6 - Partly cloudy 10 - - - -
24/11:00pm 22.6 SE 15 21 1014.9 - 2.6 - Partly cloudy 10 - - - -
24/10:55pm 22.6 SE 15 19 1014.9 - 2.6 - Partly cloudy 10 - - - -
24/10:30pm 22.5 SE 15 22 1014.8 - 2.6 - Partly cloudy 10 - - - -
24/10:16pm 22.6 SE 16 24 1014.7 - 2.6 - Partly cloudy 10 - - - -
24/10:00pm 22.5 SE 16 22 1013.3 - 2.6 - Cloudy 10 - - - -
24/09:30pm 22.7 SE 15 22 1014.5 - 2.6 - Partly cloudy 10 - - - -
24/09:28pm 22.6 SE 14 22 1014.5 - 2.6 - Partly cloudy 10 - - - -
24/09:00pm 22.3 ESE 15 21 1014.5 - 2.6 - Partly cloudy 10 - - - -
24/08:40pm 21.9 SE 13 17 1014.4 - 2.6 - Partly cloudy 10 - - - -
24/08:32pm 21.7 SE 13 19 1014.4 - 2.6 - Partly cloudy 10 - - - -
24/08:30pm 21.8 SE 13 19 1014.4 - 2.6 - Partly cloudy 10 - - - -
24/08:17pm 21.9 SE 14 21 1014.3 - 2.6 - Cloudy 0.9 - - - -
24/08:06pm 21.8 SE 16 23 1014.3 - 2.4 - Partly cloudy 0.4 - - - -
24/08:05pm 21.8 SE 16 26 1014.3 - 2.4 - Partly cloudy 0.5 - - - -
24/08:03pm 21.7 SE 17 26 1014.3 - 2.4 - Partly cloudy 0.3 - - - -
24/08:00pm 21.9 SE 17 26 1014.3 - 2.4 - Partly cloudy 0.3 - - - -
24/07:59pm 21.9 SE 17 26 1014.2 - 2.4 - Partly cloudy 0.4 - - - -
24/07:52pm 21.8 SE 15 27 1014.2 - 2.4 - Cloudy 4 - - - -
24/07:49pm 21.8 SE 15 27 1014.1 - 2.4 - Cloudy 9 - - - -
24/07:38pm 21.9 SE 15 23 1014.0 - 2.4 - Partly cloudy 10 - - - -
24/07:30pm 21.8 SE 17 24 1014.0 - 2.4 - Partly cloudy 7 - - - -
24/07:28pm 21.8 SE 17 27 1014.0 - 2.4 - Partly cloudy 6 - - - -
24/07:26pm 21.8 SE 19 27 1014.0 - 2.4 - Partly cloudy 1 - - - -
24/07:19pm 21.7 ESE 19 27 1013.9 - 2.4 - Cloudy 0.2 - - - -
24/07:17pm 21.8 ESE 19 27 1013.9 - 2.4 - Cloudy 0.2 - - - -
24/07:16pm 21.8 ESE 18 25 1013.9 - 2.4 - Cloudy 0.3 - - - -
24/07:01pm 21.9 ESE 16 25 1013.9 - 2.2 - Cloudy 0.1 - - - -
24/07:00pm 21.9 ESE 16 24 1012.5 - 1.8 - Cloudy 0.1 - - - -
24/06:54pm 21.9 ESE 16 23 1013.9 - 1.0 - Cloudy 0.1 - - - -
24/06:53pm 21.9 ESE 16 23 1013.9 - 1.0 - Cloudy 0.1 - - - -
24/06:43pm 22.3 ESE 15 26 1013.7 - 0.6 - Cloudy 0.1 - - - -
24/06:35pm 22.4 ESE 15 19 1013.8 - 0.2 - Partly cloudy 0.1 - - - -
24/06:30pm 22.5 ESE 15 21 1013.8 - 0.2 - Partly cloudy 0.5 - - - -
24/06:26pm 22.5 ESE 15 22 1013.7 - 0.2 - Partly cloudy 0.5 - - - -
24/06:25pm 22.6 ESE 15 22 1013.7 - 0.2 - Partly cloudy 0.5 - - - -
24/06:24pm 22.6 ESE 15 22 1013.7 - 0.2 - Partly cloudy 0.5 - - - -
24/06:18pm 23.2 ESE 16 25 1013.7 - 0.2 - Partly cloudy 3 - - - -
24/06:00pm 23.5 SE 17 24 1013.6 - 0.2 - Cloudy 10 - - - -
24/05:36pm 23.5 SE 14 20 1013.6 - 0.2 - Partly cloudy 10 - - - -
24/05:30pm 23.5 SE 14 21 1013.6 - 0.2 - Cloudy 10 - - - -
24/05:00pm 23.5 SE 14 20 1013.5 - 0.2 - Cloudy 10 - - - -
24/04:41pm 23.4 SE 14 21 1013.5 - 0.2 - Partly cloudy 10 - - - -
24/04:30pm 23.4 SE 15 23 1013.5 - 0.2 - Cloudy 10 - - - -
24/04:00pm 23.4 SE 14 21 1012.0 - 0.2 - Mostly cloudy 10 - - - -
24/03:57pm 23.4 SE 15 21 1013.4 - 0.2 - Cloudy 10 - - - -
24/03:30pm 23.4 SE 14 22 1013.4 - 0.2 - Partly cloudy 10 - - - -
24/03:00pm 23.5 SE 14 21 1013.7 - 0.2 - Partly cloudy 10 - - - -
24/02:49pm 23.6 SE 14 21 1013.7 - 0.2 - Partly cloudy 10 - - - -
24/02:30pm 23.5 SE 12 19 1014.1 - 0.2 - Cloudy 10 - - - -
24/02:00pm 23.3 SE 13 19 1014.5 - 0.2 - Cloudy 10 - - - -
24/01:58pm 23.3 SE 13 19 1014.5 - 0.2 - Cloudy 10 - - - -
24/01:30pm 23.1 SE 14 19 1015.0 - 0.2 - Partly cloudy 10 - - - -
24/01:00pm 22.8 SE 12 19 1013.9 - 0.2 - Mostly cloudy 10 - - - -
24/12:30pm 22.6 SE 14 20 1015.7 - 0.2 - Partly cloudy 10 - - - -
24/12:00pm 22.5 SE 13 19 1015.9 - 0.2 - Partly cloudy 10 - - - -
24/11:50am 22.3 SE 12 19 1016.1 - 0.2 - Partly cloudy 10 - - - -
24/11:33am 22.2 SE 16 24 1016.3 - 0.2 - Cloudy 6 - - - -
24/11:30am 22.3 SE 15 23 1016.2 - 0.0 - Cloudy 10 - - - -
24/11:00am 21.9 SE 12 22 1016.6 - 0.0 - Partly cloudy 10 - - - -
24/10:42am 22.1 SE 15 22 1016.6 - 0.0 - Cloudy 9 - - - -
24/10:30am 22.0 SE 15 21 1016.6 - 0.0 - Partly cloudy 5 - - - -
24/10:13am 21.9 SE 13 21 1016.7 - 0.0 - Cloudy 1 - - - -
24/10:00am 21.7 SE 17 24 1015.3 - 10.0 - Mostly cloudy 0.2 - - - -
24/09:59am 21.7 SE 17 24 1016.7 - 10.0 - Cloudy 0.2 - - - -
24/09:58am 21.6 SE 17 24 1016.7 - 10.0 - Cloudy 0.2 - - - -
24/09:49am 21.9 SE 15 23 1016.6 - 9.8 - Partly cloudy 0.3 - - - -
24/09:46am 21.9 SE 15 23 1016.6 - 9.8 - Partly cloudy 0.3 - - - -
24/09:44am 21.9 SE 15 25 1016.6 - 9.8 - Partly cloudy 0.5 - - - -
24/09:37am 21.8 SE 18 25 1016.7 - 9.8 - Partly cloudy 2 - - - -
24/09:36am 21.7 SE 17 25 1016.6 - 9.8 - Partly cloudy 4 - - - -
24/09:33am 21.6 SE 18 27 1016.6 - 9.8 - Partly cloudy 8 - - - -
24/09:30am 21.8 SE 17 27 1016.6 - 9.8 - Partly cloudy 8 - - - -
24/09:24am 21.7 ESE 15 27 1016.5 - 9.8 - Cloudy 7 - - - -
24/09:11am 21.5 SE 16 24 1016.5 - 9.8 - Partly cloudy 0.9 - - - -
24/09:06am 21.5 ESE 17 24 1016.5 - 9.8 - Partly cloudy 0.4 - - - -
24/09:02am 21.7 SE 16 24 1016.5 - 9.8 - Partly cloudy 0.5 - - - -
24/09:00am 21.7 SE 16 24 1016.4 - 9.8 - Partly cloudy 1 - - - -
24/08:59am 21.8 SE 15 24 1016.4 - 9.8 - Partly cloudy 2 - - - -
24/08:56am 21.5 SE 15 22 1016.3 - 9.8 - Partly cloudy 10 - - - -
24/08:46am 21.4 SE 13 20 1016.2 - 9.8 - Partly cloudy 9 - - - -
24/08:30am 21.2 SE 16 25 1016.1 - 9.8 - Partly cloudy 3 - - - -
24/08:23am 21.5 SE 16 25 1015.8 - 9.6 - Partly cloudy 6 - - - -
24/08:22am 21.5 SE 15 25 1015.7 - 9.6 - Partly cloudy 7 - - - -
24/08:19am 21.8 SE 14 21 1015.7 - 9.6 - Partly cloudy 10 - - - -
24/08:11am 21.5 SE 14 19 1015.6 - 9.6 - Partly cloudy 10 - - - -
24/08:00am 21.6 SE 15 21 1015.6 - 9.6 - Partly cloudy 6 - - - -
24/07:58am 21.5 SE 15 21 1015.5 - 9.6 - Partly cloudy 6 - - - -
24/07:51am 21.6 SE 12 19 1015.4 - 9.6 - Partly cloudy 10 - - - -
24/07:30am 21.5 SE 14 22 1015.1 - 9.6 - Partly cloudy 2 - - - -
24/07:28am 21.6 SE 14 21 1015.1 - 9.6 - Partly cloudy 0.9 - - - -
24/07:27am 21.6 SE 14 19 1015.1 - 9.6 - Partly cloudy 0.6 - - - -
24/07:19am 21.5 SE 15 20 1015.0 - 9.6 - Partly cloudy 0.2 - - - -
24/07:18am 21.6 SE 15 21 1015.0 - 9.6 - Partly cloudy 0.2 - - - -
24/07:00am 21.5 SE 12 19 1013.5 - 9.2 - Cloudy 6 - - - -
24/06:30am 21.3 SE 14 24 1014.7 - 9.2 - Partly cloudy 5 - - - -
24/06:26am 21.6 SE 14 19 1014.6 - 9.2 - Partly cloudy 6 - - - -
24/06:00am 21.6 SE 13 20 1014.5 - 9.0 - Partly cloudy 5 - - - -
24/05:59am 21.7 SE 13 20 1014.5 - 9.0 - Partly cloudy 6 - - - -
24/05:56am 21.7 SE 13 19 1014.5 - 9.0 - Partly cloudy 10 - - - -
24/05:30am 21.5 SE 15 23 1014.4 - 9.0 - Partly cloudy 3 - - - -
24/05:03am 21.6 SE 13 21 1014.3 - 8.8 - Partly cloudy 4 - - - -
24/05:02am 21.7 SE 13 21 1014.3 - 8.8 - Partly cloudy 4 - - - -
24/05:01am 21.8 SE 13 21 1014.2 - 8.6 - Partly cloudy 5 - - - -
24/05:00am 21.8 SE 13 21 1014.2 - 8.6 - Partly cloudy 7 - - - -
24/04:50am 21.7 SE 13 17 1014.2 - 8.6 - Partly cloudy 10 - - - -
24/04:30am 21.3 SE 13 23 1014.4 - 8.6 - Partly cloudy 1 - - - -
24/04:22am 21.6 SE 13 20 1014.4 - 8.4 - Partly cloudy 6 - - - -
24/04:14am 21.6 SE 13 19 1014.5 - 8.4 - Partly cloudy 7 - - - -
24/04:02am 21.8 ESE 15 22 1014.6 - 8.4 - Partly cloudy 1 - - - -
24/04:00am 21.8 ESE 15 22 1013.2 - 8.4 - Cloudy 0.5 - - - -
24/03:57am 21.8 SE 15 22 1014.5 - 8.4 - Partly cloudy 0.3 - - - -
24/03:55am 21.8 SE 14 22 1014.5 - 8.4 - Cloudy 0.2 - - - -
24/03:40am 21.8 SE 13 19 1014.6 - 7.8 - Partly cloudy 0.5 - - - -
24/03:38am 21.8 SE 13 20 1014.7 - 7.8 - Partly cloudy 0.7 - - - -
24/03:37am 21.8 SE 13 20 1014.7 - 7.8 - Partly cloudy 0.8 - - - -
24/03:30am 21.8 SE 14 20 1014.7 - 7.8 - Partly cloudy 7 - - - -
24/03:13am 21.8 SE 10 15 1014.7 - 7.6 - Partly cloudy 6 - - - -
24/03:11am 21.7 SE 11 16 1014.7 - 7.4 - Partly cloudy 8 - - - -
24/03:00am 21.4 SE 14 22 1014.9 - 7.4 - Partly cloudy 3 - - - -
24/02:58am 21.4 SE 15 24 1014.9 - 7.4 - Partly cloudy 1 - - - -
24/02:55am 21.4 SE 15 24 1015.0 - 7.4 - Partly cloudy 0.4 - - - -
24/02:54am 21.4 SE 15 24 1015.0 - 7.4 - Partly cloudy 0.4 - - - -
24/02:52am 21.4 SE 15 24 1015.0 - 7.4 - Partly cloudy 0.3 - - - -
24/02:49am 21.7 SE 14 22 1015.0 - 7.4 - Partly cloudy 0.4 - - - -
24/02:48am 21.8 SE 13 20 1015.0 - 7.4 - Partly cloudy 0.5 - - - -
24/02:30am 21.5 SE 15 25 1015.1 - 6.8 - Partly cloudy 1 - - - -
24/02:28am 21.4 SE 16 25 1015.2 - 6.8 - Partly cloudy 0.9 - - - -
24/02:20am 21.6 SE 15 24 1015.3 - 6.8 - Partly cloudy 6 - - - -
24/02:00am 22.5 SE 13 19 1015.3 - 6.6 - Partly cloudy 10 - - - -
24/01:30am 22.3 SE 14 22 1015.6 - 6.6 - Partly cloudy 10 - - - -
24/01:00am 22.1 SE 11 18 1014.4 - 6.6 - Cloudy 10 - - - -
24/12:50am 21.9 SE 11 19 1015.8 - 6.6 - Partly cloudy 10 - - - -
24/12:40am 21.9 SE 14 19 1015.9 - 6.6 - Partly cloudy 6 - - - -
24/12:30am 22.0 SE 12 19 1015.8 - 6.6 - Partly cloudy 10 - - - -
24/12:08am 21.7 SE 12 17 1015.9 - 6.6 - Partly cloudy 10 - - - -
24/12:00am 21.7 SE 11 18 1015.9 - 6.6 - Partly cloudy 9 - - - -
 
Date/Time
WST
Temp
°C
Wind Pressure Rain since
9am
mm
Weather Cloud Vis
km
Sea
Height
m
Swell
Dir  Spd
kts
Gust
kts
hPa Trend Height
m
Period
s
Dir
23/11:31pm 21.8 SE 15 21 1015.9 - 6.4 - Cloudy 0.7 - - - -
23/11:30pm 21.9 SE 15 21 1015.8 - 6.2 - Cloudy 0.6 - - - -
23/11:29pm 22.0 SE 15 21 1015.8 - 6.2 - Cloudy 0.5 - - - -
23/11:28pm 22.1 SE 14 21 1015.7 - 6.2 - Cloudy 0.4 - - - -
23/11:19pm 22.3 SE 13 21 1015.8 - 6.2 - Partly cloudy 0.3 - - - -
23/11:16pm 22.3 SE 14 21 1015.8 - 6.2 - Partly cloudy 0.7 - - - -
23/11:03pm 22.2 SE 14 23 1015.8 - 6.2 - Partly cloudy 6 - - - -
23/11:00pm 22.2 SE 13 22 1015.8 - 6.2 - Partly cloudy 10 - - - -
23/10:37pm 22.0 SE 14 20 1015.9 - 6.2 - Partly cloudy 9 - - - -
23/10:30pm 22.2 SE 14 22 1015.8 - 6.2 - Partly cloudy 8 - - - -
23/10:09pm 22.6 SE 13 21 1015.7 - 5.8 - Partly cloudy 6 - - - -
23/10:00pm 22.4 SE 13 21 1014.3 - 5.8 - Cloudy 10 - - - -
23/09:30pm 22.4 SE 14 24 1015.5 - 5.8 - Cloudy 10 - - - -
23/09:05pm 22.0 SE 14 21 1015.3 - 5.8 - Partly cloudy 10 - - - -
23/09:00pm 22.2 SE 14 21 1015.3 - 5.8 - Partly cloudy 10 - - - -
23/08:35pm 22.0 SE 13 21 1015.1 - 5.8 - Partly cloudy 1 - - - -
23/08:30pm 21.9 SE 13 20 1015.1 - 5.8 - Partly cloudy 0.3 - - - -
23/08:29pm 22.0 SE 13 20 1015.1 - 5.8 - Partly cloudy 0.2 - - - -
23/08:27pm 22.0 SE 14 20 1015.1 - 5.8 - Partly cloudy 0.2 - - - -
23/08:25pm 22.1 SE 15 27 1015.0 - 5.6 - Partly cloudy 0.2 - - - -
23/08:19pm 22.0 SE 15 27 1015.0 - 5.6 - Partly cloudy 0.4 - - - -
23/08:14pm 22.2 SE 13 22 1014.8 - 5.6 - Cloudy 4 - - - -
23/08:00pm 22.1 SE 13 19 1014.7 - 5.6 - Partly cloudy 10 - - - -
23/07:30pm 22.1 SE 14 21 1014.4 - 5.6 - Cloudy 10 - - - -
23/07:10pm 22.1 SE 14 23 1014.4 - 5.6 - Cloudy 10 - - - -
23/07:00pm 22.0 SE 13 22 1012.9 - 5.6 - Mostly cloudy 5 - - - -
23/06:50pm 22.2 SE 15 25 1014.2 - 5.6 - Cloudy 5 - - - -
23/06:47pm 22.2 SE 16 25 1014.2 - 5.6 - Cloudy 1 - - - -
23/06:43pm 22.2 SE 15 25 1014.1 - 5.6 - Cloudy 0.5 - - - -
23/06:42pm 22.3 SE 15 24 1014.1 - 5.6 - Cloudy 0.3 - - - -
23/06:40pm 22.3 SE 15 22 1014.1 - 5.6 - Cloudy 0.2 - - - -
23/06:30pm 22.3 SE 15 23 1014.0 - 5.6 - Cloudy 0.1 - - - -
23/06:15pm 22.4 SE 14 20 1013.9 - 4.6 - Cloudy 0.5 - - - -
23/06:05pm 22.5 SE 13 19 1013.9 - 3.8 - Partly cloudy 0.2 - - - -
23/06:02pm 22.5 SE 13 19 1013.8 - 3.8 - Partly cloudy 0.3 - - - -
23/06:00pm 22.4 SE 13 23 1013.9 - 3.6 - Partly cloudy 0.5 - - - -
23/05:43pm 22.5 SE 12 18 1013.8 - 1.2 - Partly cloudy 6 - - - -
23/05:42pm 22.5 SE 13 18 1013.8 - 1.2 - Partly cloudy 7 - - - -
23/05:30pm 22.5 SE 12 19 1013.8 - 1.2 - Partly cloudy 3 - - - -
23/05:00pm 22.8 SE 13 18 1013.7 - 1.0 - Cloudy 1 - - - -
23/04:54pm 22.8 SE 13 19 1013.7 - 1.0 - Cloudy 1 - - - -
23/04:41pm 23.0 SE 12 18 1013.5 - 1.0 - Partly cloudy 0.2 - - - -
23/04:40pm 23.0 SE 12 18 1013.5 - 1.0 - Partly cloudy 0.3 - - - -
23/04:37pm 23.0 SE 12 18 1013.5 - 0.8 - Partly cloudy 0.7 - - - -
23/04:32pm 23.0 ESE 12 17 1013.5 - 0.8 - Partly cloudy 3 - - - -
23/04:30pm 22.9 ESE 12 17 1013.5 - 0.8 - Partly cloudy 9 - - - -
23/04:00pm 22.7 SE 11 14 1012.1 - 0.8 - Cloudy 10 - - - -
23/03:56pm 22.7 SE 11 15 1013.5 - 0.8 - Cloudy 10 - - - -

Other Formats:

Comma delimited format used in spreadsheet applications
http://www.bom.gov.au/fwo/IDW60701/IDW60701.96995.axf

JavaScript Object Notation format (JSON) in row-major order
http://www.bom.gov.au/fwo/IDW60701/IDW60701.96995.json